| time (UTC) | temp F | wind direction | speed MPH | gust MPH | rain 1hr in | rain 24hr in | rain mn in | humidity % | barometer mb |
| 20260503010022 | 56 | 49 | 0.0 | 0.0 | 0.00 | 0.00 | 0.00 | 69 | 1006.9 |
| 20260503004516 | 57 | 49 | 0.0 | 1.0 | 0.00 | 0.00 | 0.00 | 68 | 1006.9 |
| 20260503003012 | 58 | 49 | 0.0 | 2.0 | 0.00 | 0.00 | 0.00 | 64 | 1007.1 |
| 20260503001512 | 59 | 43 | 1.0 | 4.0 | 0.00 | 0.00 | 0.00 | 65 | 1007.2 |
| 20260503000008 | 59 | 55 | 3.0 | 6.0 | 0.00 | 0.00 | 0.00 | 62 | 1007.3 |
| 20260502234506 | 59 | 59 | 2.0 | 5.0 | 0.00 | 0.00 | 0.00 | 55 | 1007.4 |
| 20260502233004 | 59 | 48 | 3.0 | 6.0 | 0.00 | 0.00 | 0.00 | 52 | 1007.5 |
| 20260502231503 | 59 | 70 | 1.0 | 8.0 | 0.00 | 0.00 | 0.00 | 51 | 1007.2 |
| 20260502230005 | 59 | 57 | 4.0 | 7.0 | 0.00 | 0.00 | 0.00 | 50 | 1007.4 |
| 20260502224501 | 59 | 43 | 3.0 | 7.0 | 0.00 | 0.00 | 0.00 | 51 | 1007.4 |
| 20260502223100 | 59 | 41 | 3.0 | 7.0 | 0.00 | 0.00 | 0.00 | 51 | 1007.4 |
| 20260502221557 | 59 | 46 | 2.0 | 6.0 | 0.00 | 0.00 | 0.00 | 49 | 1007.4 |
| 20260502220054 | 60 | 26 | 1.0 | 4.0 | 0.00 | 0.00 | 0.00 | 48 | 1007.3 |
| 20260502214552 | 60 | 35 | 2.0 | 6.0 | 0.00 | 0.00 | 0.00 | 48 | 1007.5 |
| 20260502213051 | 59 | 34 | 1.0 | 5.0 | 0.00 | 0.00 | 0.00 | 48 | 1007.6 |
| 20260502211550 | 59 | 17 | 1.0 | 4.0 | 0.00 | 0.00 | 0.00 | 48 | 1007.7 |
| 20260502210104 | 59 | 21 | 0.0 | 2.0 | 0.00 | 0.00 | 0.00 | 50 | 1007.9 |
| 20260502204554 | 59 | 22 | 0.0 | 5.0 | 0.00 | 0.00 | 0.00 | 50 | 1008.0 |
| 20260502203051 | 59 | 41 | 0.0 | 4.0 | 0.00 | 0.00 | 0.00 | 49 | 1008.1 |
| 20260502201552 | 60 | 38 | 0.0 | 3.0 | 0.00 | 0.00 | 0.00 | 47 | 1008.2 |
| 20260502200050 | 61 | 43 | 3.0 | 8.0 | 0.00 | 0.00 | 0.00 | 46 | 1008.2 |
| 20260502194547 | 61 | 41 | 0.0 | 4.0 | 0.00 | 0.00 | 0.00 | 45 | 1008.2 |
| 20260502193045 | 64 | 35 | 3.0 | 8.0 | 0.00 | 0.00 | 0.00 | 42 | 1008.2 |
| 20260502191555 | 65 | 33 | 6.0 | 12.0 | 0.00 | 0.00 | 0.00 | 39 | 1008.1 |
| 20260502190055 | 66 | 42 | 4.0 | 11.0 | 0.00 | 0.00 | 0.00 | 39 | 1008.1 |
| 20260502184556 | 67 | 38 | 6.0 | 11.0 | 0.00 | 0.00 | 0.00 | 38 | 1008.0 |
| 20260502183101 | 67 | 45 | 6.0 | 11.0 | 0.00 | 0.00 | 0.00 | 38 | 1007.9 |
| 20260502181546 | 68 | 50 | 8.0 | 14.0 | 0.00 | 0.00 | 0.00 | 37 | 1008.0 |
| 20260502163043 | 72 | 70 | 13.0 | 20.0 | 0.00 | 0.00 | 0.00 | 31 | 1008.0 |
| 20260502161533 | 72 | 34 | 11.0 | 19.0 | 0.00 | 0.00 | 0.00 | 31 | 1008.1 |
| 20260502151525 | 73 | 55 | 9.0 | 21.0 | 0.00 | 0.00 | 0.00 | 33 | 1008.6 |
| 20260502123007 | 73 | 51 | 10.0 | 22.0 | 0.00 | 0.00 | 0.00 | 35 | 1010.5 |
| 20260502121506 | 73 | 40 | 14.0 | 23.0 | 0.00 | 0.00 | 0.00 | 35 | 1010.9 |
| 20260502114501 | 73 | 43 | 10.0 | 23.0 | 0.00 | 0.00 | 0.00 | 37 | 1011.4 |
| 20260502113059 | 72 | 47 | 12.0 | 19.0 | 0.00 | 0.00 | 0.00 | 35 | 1011.4 |
| 20260502111606 | 72 | 25 | 12.0 | 20.0 | 0.00 | 0.00 | 0.00 | 36 | 1012.0 |
| 20260502110057 | 72 | 52 | 12.0 | 22.0 | 0.00 | 0.00 | 0.00 | 34 | 1011.9 |
| 20260502104555 | 72 | 70 | 12.0 | 20.0 | 0.00 | 0.00 | 0.00 | 36 | 1012.2 |
| 20260502103055 | 72 | 54 | 12.0 | 19.0 | 0.00 | 0.00 | 0.00 | 35 | 1012.2 |
| 20260502101554 | 72 | 40 | 8.0 | 20.0 | 0.00 | 0.00 | 0.00 | 38 | 1012.3 |
| 20260502071512 | 62 | 64 | 9.0 | 14.0 | 0.00 | 0.00 | 0.00 | 52 | 1015.0 |
| 20260502070009 | 61 | 31 | 9.0 | 14.0 | 0.00 | 0.00 | 0.00 | 52 | 1015.2 |
| 20260502064505 | 60 | 73 | 5.0 | 12.0 | 0.00 | 0.00 | 0.00 | 55 | 1015.3 |
| 20260502063003 | 59 | 50 | 6.0 | 12.0 | 0.00 | 0.00 | 0.00 | 55 | 1015.4 |
| 20260502061558 | 58 | 61 | 6.0 | 12.0 | 0.00 | 0.00 | 0.00 | 57 | 1015.6 |
| 20260502060054 | 57 | 58 | 5.0 | 8.0 | 0.00 | 0.00 | 0.00 | 60 | 1015.6 |
| 20260502054550 | 56 | 52 | 7.0 | 11.0 | 0.00 | 0.00 | 0.00 | 60 | 1015.7 |
| 20260502053056 | 55 | 34 | 5.0 | 9.0 | 0.00 | 0.00 | 0.00 | 64 | 1015.7 |
| 20260502051559 | 53 | 55 | 6.0 | 12.0 | 0.00 | 0.00 | 0.00 | 65 | 1015.8 |
| 20260502050043 | 52 | 38 | 4.0 | 7.0 | 0.00 | 0.00 | 0.00 | 67 | 1015.9 |
| 20260502044541 | 51 | 43 | 5.0 | 8.0 | 0.00 | 0.00 | 0.00 | 70 | 1016.0 |
| 20260502043040 | 50 | 45 | 2.0 | 6.0 | 0.00 | 0.00 | 0.00 | 71 | 1016.1 |
| 20260502041601 | 48 | 38 | 2.0 | 3.0 | 0.00 | 0.00 | 0.00 | 74 | 1016.0 |
| 20260502040042 | 47 | 38 | 0.0 | 3.0 | 0.00 | 0.00 | 0.00 | 74 | 1016.0 |
| 20260502034537 | 46 | 36 | 1.0 | 4.0 | 0.00 | 0.00 | 0.00 | 75 | 1016.1 |
| 20260502033050 | 45 | 31 | 1.0 | 4.0 | 0.00 | 0.00 | 0.00 | 75 | 1016.2 |
| 20260502031533 | 46 | 30 | 1.0 | 3.0 | 0.00 | 0.00 | 0.00 | 73 | 1016.3 |
| 20260502030031 | 46 | 33 | 1.0 | 3.0 | 0.00 | 0.00 | 0.00 | 72 | 1016.6 |
| 20260502024529 | 46 | 42 | 0.0 | 3.0 | 0.00 | 0.00 | 0.00 | 72 | 1016.6 |
| 20260502023027 | 46 | 33 | 0.0 | 4.0 | 0.00 | 0.00 | 0.00 | 72 | 1016.7 |
| 20260502021524 | 46 | 21 | 1.0 | 4.0 | 0.00 | 0.00 | 0.00 | 72 | 1016.8 |
| 20260502020021 | 47 | 30 | 0.0 | 3.0 | 0.00 | 0.00 | 0.00 | 71 | 1016.9 |
| 20260502014526 | 47 | 43 | 0.0 | 2.0 | 0.00 | 0.00 | 0.00 | 71 | 1017.1 |
| 20260502013016 | 47 | 45 | 0.0 | 2.0 | 0.00 | 0.00 | 0.00 | 70 | 1017.2 |
| 20260502011514 | 48 | 45 | 1.0 | 4.0 | 0.00 | 0.00 | 0.00 | 68 | 1017.3 |